Regional Weather Roundup
Issued by NWS Charleston, SC

Current Version | Previous Version | Graphics & Text | Print | Product List | Glossary On
Versions: 1 2 3 4 5 6 7 8 9 10 11 12 13 14 15 16 17 18 19 20 21 22 23 24 25 26 27 28 29 30 31 32 33 34 35 36 37 38 39 40 41 42 43 44 45 46 47 48 49 50
090
ASUS42 KCHS 032213
RWRCHS

REGIONAL WEATHER ROUNDUP
NATIONAL WEATHER SERVICE CHARLESTON SC
600 PM EDT TUE MAY 03 2016

NOTE: "FAIR" INDICATES FEW OR NO CLOUDS BELOW 12,000 FEET WITH NO
SIGNIFICANT WEATHER AND/OR OBSTRUCTIONS TO VISIBILITY.

NOT ALL STATIONS ARE QUALITY CONTROLLED. USE DATA WITH CAUTION...
ESPECIALLY DEWPOINT OBSERVATIONS.

SCZ027-030-031-034>040-042>050-032300-
...SOUTHEAST SOUTH CAROLINA...

CITY           SKY/WX    TMP DP  RH WIND       PRES   REMARKS
N CHARLESTON   PTSUNNY   82  67  60 SW8       29.76S
WATERFRONT PRK   N/A     79  73  82 S7        29.75S
MOUNT PLEASANT FAIR      81  72  74 S12       29.77R
JOHNS ISLAND   FAIR      82  72  69 S12       29.77S
PINOPOLIS        N/A     86  68  54 SW8       29.67S
MONCKS CORNER  MOCLDY    81  61  50 SW6       29.76S
SUMMERVILLE    MOCLDY    82  68  61 SW3       29.77S
BEAUFORT MCAS  PTSUNNY   86  64  47 W10       29.77F
BEAUFORT ARPT  FAIR      88  61  40 W12       29.78R
HILTON HEAD IS MOSUNNY   84  64  51 W9        29.80S
WALTERBORO     CLOUDY    79  70  73 S7        29.79R
ALLENDALE      LGT RAIN  75  68  78 CALM      29.79R

...SOUTHERN MIDLANDS AND PEE DEE...

CITY           SKY/WX    TMP DP  RH WIND       PRES   REMARKS
GEORGETOWN     FAIR      81  70  69 S9        29.77S
KINGSTREE      FAIR      81  64  57 SW3       29.75S
ORANGEBURG     CLOUDY    82  63  52 W13       29.77S
BARNWELL       FAIR      81  72  74 W3        29.80R
AIKEN          TSTM      70  66  88 W8        29.84R
MANNING        FAIR      81  64  57 W6        29.76R
COLUMBIA       CLOUDY    84  63  49 W10       29.74F
SUMTER         MOSUNNY   83  66  57 SW13      29.73F
FLORENCE       PTSUNNY   83  65  54 SW10      29.74S
MYRTLE BEACH   PTSUNNY   75  64  69 S10       29.78F
N MYRTLE BEACH SUNNY     74  68  81 S9        29.77S

$$

GAZ063-065-086>088-099>101-113>116-118-119-134>141-150-032300-
...SOUTHEAST GEORGIA...

CITY           SKY/WX    TMP DP  RH WIND       PRES   REMARKS
SAVANNAH ARPT  MOSUNNY   87  64  46 SW10      29.78S
HUNTER AAF     MOSUNNY   88  69  53 SW9       29.76S HX  91
FORT STEWART   PTSUNNY   86  66  50 SW9G18    29.77S
STATESBORO     CLOUDY    85  73  67 W5        29.79S HX  91
SYLVANIA       MOCLDY    84  68  59 NW9       29.79S
CLAXTON        FAIR      85  69  58 SW7       29.79S

...CSRA...CENTRAL AND FAR SOUTHEAST GEORGIA...

CITY           SKY/WX    TMP DP  RH WIND       PRES   REMARKS
THOMSON        MOSUNNY   78  69  75 SW6       29.84S
AUGUSTA-BUSH   CLOUDY    77  68  73 SW6       29.78S
AUGUSTA-DANIEL MOSUNNY   75  68  78 SW7       29.80F
SWAINSBORO     CLOUDY    81  63  54 W7        29.81S
VIDALIA        MOSUNNY   84  64  51 NW9G16    29.80S
EASTMAN        FAIR      83  64  53 W6        29.84S
HAZLEHURST     FAIR      85  64  49 CALM      29.79S
ALMA           CLOUDY    78  69  73 S10       29.81R
WAYCROSS       CLOUDY    80  70  72 NW3       29.82R
JESUP          FAIR      82  72  69 NW5       29.81S
BAXLEY         PTSUNNY   84  66  54 SW8       29.79S
BRUNSWICK      MOSUNNY   88  70  55 NW5       29.81R HX  92
SAINT SIMONS   MOSUNNY   85  65  51 W10       29.81R

$$

SCZ027-028-034-036>038-045-046-048>050-GAZ119-141-032300-
...LAKE AND SUPPLEMENTAL COASTAL OBSERVATIONS...

STATION/POSITION TIME  TEMP    WIND        PRES    WAVE   SWELL
                       AIR SEA DIR/SP/G            HT/PER HT/PER/DIR
                 (UTC) (F)     (DEG/KT/KT) (MB)    (FT/S) (FT/S/D)
WINYAH BAY       NOT AVBL
LAKE MURRAY      2100   78     270/ 11/ 15 1007.1F
ACE BASIN NERRS  NOT AVBL
FORT PULASKI     2100   82 75  300/  7/ 10 1008.9F
SAPELO ISLAND    2100   85     250/  9     1009.0S

$$

ANZ835-935-AMZ111-154-330-350-352-354-370-450-454-472-032300-
...C-MAN AND BUOY OBSERVATIONS...

STATION/POSITION TIME  TEMP    WIND        PRES    WAVE   SWELL
                       AIR SEA DIR/SP/G            HT/PER HT/PER/DIR
                 (UTC) (F)     (DEG/KT/KT) (MB)    (FT/S) (FT/S/D)
BUOY 41004       2150   75 75  210/ 16/ 17 1008.0F   4/ 8   3/ 8
BUOY 41008       NOT AVBL
FOLLY BEACH CMAN 2200   76     210/ 16/ 17 1008.5S
CAPERS NEARSHORE 2108   76 75  220/ 16/ 21 1007.9R
FRIPP NEARSHORE  2108   77 73  210/ 12/ 16 1007.8F


STATION/POSITION TIME  TEMP    WIND        PRES    WAVE   SWELL
                       AIR SEA DIR/SP/G            HT/PER HT/PER/DIR
                 (UTC) (F)     (DEG/KT/KT) (MB)    (FT/S) (FT/S/D)
5E ST. MARYS GA  2121      75                N/A     3/ 5
FRYING PAN BUOY  2100   75 74  200/ 10/ 12 1008.5F
BUOY 41025       2150   73 72  200/ 19/ 23 1008.5F   4/ 8   2/200/ 8
CAPE LOOKOUT NC  2100   70     180/ 13/ 14 1008.7R
BUOY 41002       2150   67 74   20/  4/  6 1013.1F   4/ 6   3/190/ 6
BUOY 41010       2120   78 79  220/  8/  8 1012.6R
ST AUGUSTINE FL  2200   76 71   60/ 12/ 15 1011.1F


$$




USA.gov is the U.S. government's official web portal to all federal, state and local government web resources and services.